Hourly Data Report for December 07, 2016

All times are specified in Local Standard Time (LST). Add 1 hour to adjust for Daylight Saving Time where and when it is observed.

KLEEFELD (MAFRI)
MANITOBA

49°31'04.000" N
96°54'04.000" W
246.50 m
5021500
71646
PTG

Download Data

Hourly Data (December 2016)
Hourly Data Report for December 7, 2016
Temp Definition
°C
Dew Point Temp Definition
°C
Rel Hum Definition
%
Wind Dir Definition
10's deg

Wind Spd Definition
km/h
Visibility Definition
km
Stn Press Definition
kPa
Hmdx Definition


Wind Chill Definition


Weather Definition


TIME
00:00 -4.8 -6.3 89 31 36   97.30   -13 LegendNANA
01:00 -4.8 -6.4 88 31 37   97.36   -14 LegendNANA
02:00 -5.0 -6.7 88 31 36   97.45   -14 LegendNANA
03:00 -5.1 -6.9 88 31 38   97.54   -14 LegendNANA
04:00 -5.2 -6.9 88 31 36   97.60   -14 LegendNANA
05:00 -6.4 -7.8 90 29 30   97.68   -15 LegendNANA
06:00 -5.2 -6.9 88 31 34   97.75   -14 LegendNANA
07:00 -5.2 -6.8 88 31 34   97.83   -14 LegendNANA
08:00 -5.1 -6.7 88 31 32   97.92   -13 LegendNANA
09:00 -4.9 -6.8 87 31 30   98.02   -13 LegendNANA
10:00 -4.8 -6.4 88 31 24   98.13   -12 LegendNANA
11:00 -4.6 -6.6 86 32 27   98.23   -12 LegendNANA
12:00 -4.6 -7.1 83 33 29   98.29   -12 LegendNANA
13:00 -4.9 -6.9 85 33 28   98.38   -13 LegendNANA
14:00 -5.2 -7.8 82 33 31   98.47   -13 LegendNANA
15:00 -5.2 -7.5 84 34 28   98.58   -13 LegendNANA
16:00 -5.8 -7.8 85 34 31   98.72   -14 LegendNANA
17:00 -5.9 -8.3 83 34 30   98.84   -14 LegendNANA
18:00 -6.3 -8.4 85 34 33   98.95   -15 LegendNANA
19:00 -6.2 -8.5 84 34 30   99.06   -15 LegendNANA
20:00 -6.0 -8.7 82 34 35   99.16   -15 LegendNANA
21:00 -6.1 -8.8 81 34 32   99.22   -15 LegendNANA
22:00 -7.3 -9.7 83 32 28   99.32   -16 LegendNANA
23:00 -7.6 -10.0 83 33 29   99.42   -16 LegendNANA

Notes on Data Quality.

Legend

  • E = Estimated
  • M = Missing
  • NA = Not Available
  • ‡ = Partner data that is not subject to review by the National Climate Archives
Date modified: